Location: Unspecified
(0.0000°N, 0.0000°E)
Time: 11:21:29
(UTC+00:00)

Tiros 1 - Pass Details

Date: 19 November 2019
Orbit: 630 x 664 km, 48.4° (Epoch: 13 December)

Event Time Altitude Azimuth Distance (km) Brightness Sun altitude
Rises 22:13:53 0° 334° (NNW) 2,943 - -60.2°
Reaches altitude 10° 22:16:20 10° 342° (NNW) 2,041 - -60.7°
Maximum altitude 22:20:43 39° 51° (NE) 979 - -61.5°
Drops below altitude 10° 22:25:10 10° 120° (ESE) 2,067 - -62.3°
Sets 22:27:39 0° 128° (SE) 2,984 - -62.7°
